TimeMDT,TemperatureF,Dew PointF,Humidity,Sea Level PressureIn,VisibilityMPH,Wind Direction,Wind SpeedMPH,Gust SpeedMPH,PrecipitationIn,Events,Conditions,WindDirDegrees,DateUTC
12:53 AM,52.0,45.0,77,30.06,10.0,Calm,Calm,-,N/A,,Clear,0,2013-05-10 06:53:00
1:53 AM,51.1,46.0,83,30.07,10.0,NNE,5.8,-,N/A,,Clear,20,2013-05-10 07:53:00
2:53 AM,50.0,45.0,83,30.08,10.0,East,3.5,-,N/A,,Clear,80,2013-05-10 08:53:00
3:53 AM,46.9,43.0,86,30.09,10.0,Calm,Calm,-,N/A,,Clear,0,2013-05-10 09:53:00
4:53 AM,42.1,41.0,96,30.12,10.0,Calm,Calm,-,N/A,,Clear,0,2013-05-10 10:53:00
6:53 AM,43.0,42.1,97,30.15,10.0,Calm,Calm,-,N/A,,Clear,0,2013-05-10 12:53:00
7:53 AM,48.9,46.0,90,30.17,10.0,Calm,Calm,-,N/A,,Clear,0,2013-05-10 13:53:00
8:53 AM,54.0,46.9,77,30.18,10.0,Calm,Calm,-,N/A,,Clear,0,2013-05-10 14:53:00
9:53 AM,59.0,48.0,67,30.18,10.0,Calm,Calm,-,N/A,,Clear,0,2013-05-10 15:53:00
11:53 AM,69.1,42.1,38,30.17,10.0,ENE,4.6,-,N/A,,Clear,70,2013-05-10 17:53:00
12:53 PM,71.1,43.0,36,30.16,10.0,Calm,Calm,-,N/A,,Clear,0,2013-05-10 18:53:00
1:53 PM,73.0,39.9,30,30.14,10.0,East,3.5,-,N/A,,Clear,100,2013-05-10 19:53:00
2:53 PM,73.9,39.9,29,30.13,10.0,Variable,3.5,-,N/A,,Clear,0,2013-05-10 20:53:00
3:53 PM,75.0,37.9,26,30.12,10.0,Calm,Calm,-,N/A,,Clear,0,2013-05-10 21:53:00
4:53 PM,77.0,37.0,24,30.12,10.0,Variable,4.6,-,N/A,,Clear,0,2013-05-10 22:53:00
5:53 PM,78.1,35.1,21,30.11,10.0,NNE,5.8,-,N/A,,Clear,20,2013-05-10 23:53:00
6:53 PM,75.9,34.0,22,30.09,10.0,Calm,Calm,-,N/A,,Clear,0,2013-05-11 00:53:00
7:53 PM,72.0,39.9,31,30.11,10.0,North,6.9,-,N/A,,Clear,10,2013-05-11 01:53:00
8:53 PM,66.9,39.9,37,30.12,10.0,WNW,3.5,-,N/A,,Clear,290,2013-05-11 02:53:00
9:53 PM,57.9,45.0,62,30.15,10.0,Calm,Calm,-,N/A,,Clear,0,2013-05-11 03:53:00
10:53 PM,57.9,44.1,60,30.16,10.0,SSW,3.5,-,N/A,,Clear,200,2013-05-11 04:53:00
11:53 PM,54.0,42.1,64,30.16,10.0,SSW,3.5,-,N/A,,Clear,210,2013-05-11 05:53:00